Regional Weather Roundup
Issued by NWS

Home | Current Version | Previous Version | Graphics & Text | Print | Product List | Glossary On
Versions: 1 2 3 4 5 6 7 8 9 10 11 12 13 14 15 16 17 18 19 20 21 22 23 24 25 26 27 28 29 30 31 32 33 34 35 36 37 38 39 40 41 42 43 44 45 46 47 48 49 50
000
ASUS43 KMPX 191401
RWRMN
WEATHER ROUNDUP FOR MINNESOTA
NATIONAL WEATHER SERVICE TWIN CITIES/CHANHASSEN MN
800 AM CST THU JAN 19 2017


NOTE: "FAIR" INDICATES FEW OR NO CLOUDS BELOW 12,000 FEET WITH NO
SIGNIFICANT WEATHER AND/OR OBSTRUCTIONS TO VISIBILITY. N/A MEANS
CURRENT SKY AND/OR WEATHER CONDITIONS ARE NOT AVAILABLE.

MNZ060>063-068>070-191500-
   Twin Cities Metro

CITY           SKY/WX    TMP DP  RH WIND       PRES   REMARKS
TWIN CITIES    CLEAR     31  28  89 SE8       29.82S WCI  23
ST PAUL        CLEAR     31  30  96 SE6       29.84S WCI  25
CRYSTAL        CLEAR     30  27  88 SE5       29.80S FOG     WCI  25
BLAINE         CLEAR     32  32 100 SE7       29.81R FOG     WCI  26
LAKEVILLE      CLEAR     30  30 100 S8        29.82S WCI  23
EDEN PRAIRIE   CLEAR     35  31  85 S10       29.79F WCI  27
SOUTH ST PAUL  CLEAR     31  30  98 CALM      29.83S FOG
LAKE ELMO      FAIR      32  32 100 CALM      29.84R FOG
$$
MNZ001>005-007-008-013>017-022>024-027-028-191500-
   Northwest Minnesota

CITY           SKY/WX    TMP DP  RH WIND       PRES   REMARKS
BEMIDJI        FOG       29  28  99 SE10      29.66R VSB 1/4 WCI  19
HALLOCK        PTCLDY    27  25  93 S17       29.56S WCI  14
ROSEAU         CLOUDY    28  23  80 SW9       29.59R WCI  20
WARROAD        CLOUDY    30  25  80 SW6       29.60R WCI  24
THIEF RVR FALL SNOW      26  25  96 S9        29.61R VSB 1/4 WCI  17
CROOKSTON      FOG       28  28 100 S15       29.61R VSB 1/2 WCI  17
FOSSTON        CLOUDY    25  23  93 SE10      29.60F FOG     WCI  15
DETROIT LAKES  FOG       32  32 100 S8        29.66R VSB 3/4 WCI  25
MOORHEAD       FOG       28  28 100 S14       29.63S VSB 3/4 WCI  17
PARK RAPIDS    FOG       32  29  88 S12       29.67F VSB 1/4 WCI  23
MAHNOMEN       PTSUNNY   28  28  99 SE8       29.62F FOG     WCI  20
$$
MNZ006-009>011-018-025>026-191500-
   North Central Minnesota

CITY           SKY/WX    TMP DP  RH WIND       PRES   REMARKS
BAUDETTE       CLEAR     26  22  84 SE7       29.60F WCI  18
FLAG ISLAND    CLOUDY    25  19  80 S12       29.59R WCI  14
INTL FALLS     CLOUDY    25  22  88 S5        29.66F FOG     WCI  19
WASKISH        CLOUDY    28  27  93 SE8       29.64F FOG     WCI  20
BIG FORK       FOG       30  30 100 S7        29.70R VSB 1/2 WCI  23
LONGVILLE      FOG       32  30  93 S7        29.70F VSB 3/4 WCI  26
GRAND RAPIDS   MIX PCPN  32  32 100 S12       29.74R VSB 1/4 WCI  23
CRANE LAKE     CLOUDY    25  25 100 S5        29.73S FOG     WCI  19
ORR            FOG       28  27  93 SE3       29.69S VSB 1/2
COOK           FOG       28  28 100 S5        29.73R VSB 1/4 WCI  23
WALKER         FOG       31  30  99 S6        29.68S VSB 1/2 WCI  25
$$
MNZ012-019>021-037-191500-
   Northeast Minnesota

CITY           SKY/WX    TMP DP  RH WIND       PRES   REMARKS
DULUTH         FOG       34  34 100 S12       29.76S VSB 1/4 WCI  25
ELY            FOG       28  28 100 S6        29.73S VSB 3/4 WCI  22
HIBBING        FOG       31  31 100 S7        29.74R VSB 1/4 WCI  24
EVELETH        FOG       32  32  99 S7        29.75R VSB 1/4 WCI  26
DULUTH HARBOR  CLOUDY    34  32  93 CALM      29.80S FOG
TWO HARBORS    HAZE      36  30  80 CALM      29.76F VSB 1/4
SILVER BAY     FOG       34  34 100 SW5       29.77S VSB 1/4 WCI  30
G MARAIS ARPRT FOG       28  27  93 S6        29.76F VSB<1/4 WCI  22
$$
MNZ029>031-032-039>041-046>048-054>057-064-191500-
   West Central Minnesota

CITY           SKY/WX    TMP DP  RH WIND       PRES   REMARKS
FERGUS FALLS   CLOUDY    30  30 100 S13       29.69F FOG     WCI  20
WHEATON        CLOUDY    34  34 100 SE12      29.67F WCI  25
MORRIS         CLEAR     27  27 100 SE9       29.69S FOG     WCI  17
ALEXANDRIA     CLEAR     30  30 100 S8        29.71R WCI  22
ELBOW LAKE     FAIR      29  29 100 SE14      29.67F FOG     WCI  19
WADENA         FOG       30  30 100 SE7       29.68F VSB 1/4 WCI  23
GLENWOOD       CLEAR     28  28 100 S9        29.71S WCI  20
APPLETON       CLEAR     32  30  93 SE7       29.70S WCI  26
ORTONVILLE     CLOUDY    28  27  93 CALM      29.68S
MADISON        CLEAR     32  32 100 SE9       29.69S WCI  24
WILLMAR        FAIR      28  28 100 SE8       29.74F WCI  20
$$
MNZ033>034-036-042>043-049>051-058-059-191500-
   Central Minnesota

CITY           SKY/WX    TMP DP  RH WIND       PRES   REMARKS
ST CLOUD       CLEAR     29  29 100 SE6       29.76F FOG     WCI  23
SAUK CENTRE    FAIR      28  28 100 SE6       29.73S FOG     WCI  21
PAYNESVILLE    CLEAR     30  30 100 S5        29.74F WCI  25
AITKIN         CLOUDY    36  32  87 S8        29.73R FOG
PINE RIVER     MIX PCPN  32  32 100 S8        29.75S VSB 1/2 WCI  25
BRAINERD       FOG       33  33 100 S10       29.74R VSB 3/4 WCI  25
STAPLES        DRZL/FOG  32  32 100 S8        29.71S VSB 1/2 WCI  25
LONG PRAIRIE   FAIR      28  28 100 SE6       29.73R FOG     WCI  22
LITTLE FALLS   CLOUDY    32  30  93 SE5       29.75S FOG     WCI  27
LITCHFIELD     CLEAR     34  32  93 CALM      29.76S
BUFFALO        CLEAR     32  31  94 SE6       29.79S FOG     WCI  27
MAPLE LAKE     CLEAR     32  32 100 S6        29.78S FOG     WCI  27
HUTCHINSON     PTCLDY    32  31  98 CALM      29.78F FOG
$$
MNZ037-044-045-052-053-191500-
   East Central Minnesota

CITY           SKY/WX    TMP DP  RH WIND       PRES   REMARKS
PRINCETON      FOG       27  25  93 CALM      29.77F VSB<1/4
MORA           FOG       28  27  93 CALM      29.80F VSB 1
CAMBRIDGE      CLOUDY    32  27  80 SE3       29.78S HAZE
RUSH CITY      CLOUDY    30  28  93 S6        29.80F FOG     WCI  24
MOOSE LAKE     CLOUDY    32  32 100 S7        29.76S FOG     WCI  26
HINCKLEY       FOG       30  30 100 CALM      29.79S VSB 3/4
CLOQUET        CLOUDY    34  32  93 S9        29.76S FOG     WCI  26
MCGREGOR       CLOUDY    34  32  93 S7        29.75S VSB 3/4 WCI  28
$$
MNZ071>073-080-081-089-090-097-098-191500-
   Southwest Minnesota

CITY           SKY/WX    TMP DP  RH WIND       PRES   REMARKS
MONTEVIDEO     CLEAR     32  32 100 S7        29.72S WCI  26
GRANITE FALLS  CLEAR     33  32  94 SE13      29.73F WCI  24
CANBY          CLEAR     39  35  86 CALM      29.70R
MARSHALL       CLEAR     37  33  85 S15       29.71S
REDWOOD FALLS  CLEAR     33  29  85 S13       29.74F WCI  24
OLIVIA         CLEAR     32  30  93 SE9       29.74S WCI  24
PIPESTONE      CLEAR     34  32  93 S12       29.69F WCI  25
WINDOM           N/A     34  32  93 S6        29.75F WCI  29
WORTHINGTON    CLEAR     35  32  88 S9        29.75F WCI  28
JACKSON        CLEAR     32  32 100 S9        29.77S FOG     WCI  24
TRACY          CLEAR     37  34  87 S14       29.71F
SLAYTON        PTCLDY    33  32  95 S9        29.73F WCI  26
$$
MNZ065>067-074>077-082>085-091>093-191500-
   South Central Minnesota

CITY           SKY/WX    TMP DP  RH WIND       PRES   REMARKS
MANKATO        FOG       32  31  96 S7        29.81F VSB 1/2 WCI  26
NEW ULM        CLEAR     32  30  93 S8        29.78F FOG     WCI  25
ST JAMES       CLEAR     32  30  93 SE8       29.79F FOG     WCI  25
FAIRMONT       MIX PCPN  32  31  96 S14       29.80S VSB 1/4 WCI  22
GLENCOE        CLEAR     34  34  99 S8        29.77F FOG     WCI  27
FARIBAULT      CLEAR    N/A N/A N/A SE5       29.83F FOG
OWATONNA       FOG       30  30 100 SE6       29.83S VSB 1/4 WCI  24
WASECA         CLEAR     28  27  93 SE5       29.83S FOG     WCI  23
ALBERT LEA     FOG       30  30 100 S9        29.84R VSB<1/4 WCI  22
$$
MNZ078>079-086>088-094>096-191500-
   Southeast Minnesota

CITY           SKY/WX    TMP DP  RH WIND       PRES   REMARKS
ROCHESTER      FOG       29  29 100 S12       29.85S VSB<1/4 WCI  19
RED WING       CLEAR     30  28  93 SE6       29.85S FOG     WCI  24
STANTON        CLEAR     32  29  90 S7        29.82S FOG     WCI  25
DODGE CENTER   SNOW      28  28 100 CALM      29.83F VSB<1/4
WINONA         CLOUDY    32  32 100 CALM      29.91R
AUSTIN         FOG       30  28  93 S7        29.85R VSB 1/4 WCI  23
PRESTON        FOG       29  28  97 S7        29.87S VSB<1/4 WCI  22
$$
ABBREVIATIONS USED IN REMARKS
   TC - TEMPERATURES IN CELSIUS
  WCI - WIND CHILL INDEX
   HX - HEAT INDEX
  VSB - VISIBILITY
$$



USA.gov is the U.S. government's official web portal to all federal, state and local government web resources and services.